User: anonymous   Login
Location: Los Ranchitos
(37.9930°N, 122.5425°W)
Time: 01:51:01
(UTC+00:00)
Language:

Cosmos 1536 Rocket - Orbit

View from above orbital plane
View from above orbital plane
View from above satellite
View from above satellite

Ground track
Ground track

The orbit data is extracted from the following two-line orbital elements,

1 14700U 84013B   20328.52657157 +.00000110 +00000-0 +10384-4 0  9993
2 14700 082.5390 063.9663 0020617 145.8680 224.8925 14.83305280966009
Epoch (UTC): 23 November 2020 12:38:15
Eccentricity: 0.0020617
inclination: 82.5390°
perigee height: 604 km
apogee height: 633 km
right ascension of ascending node: 63.9663°
argument of perigee: 145.8680°
revolutions per day: 14.83305280
mean anomaly at epoch: 224.8925°
orbit number at epoch: 96600

The dashed part of the orbit path shows where the satellite is in the earth's shadow,  

DLR